Location: Ahstedt
(52.2048°N, 10.1060°E)
Time: 19:45:18
(UTC+00:00)

COSMOS 2406 - Pass Details

Date: 18 January 2026
Orbit: 843 x 861 km, 71.0° (Epoch: 16 February)

Event Time Altitude Azimuth Distance (km) Brightness Sun altitude
Exits shadow 05:57:53 11° 319° (NW) 2,423 5.1 -12.0°
Maximum altitude 06:03:06 45° 250° (WSW) 1,158 3.6 -11.2°
Drops below altitude 10° 06:08:31 10° 179° (S) 2,490 5.9 -10.4°
Sets 06:11:03 0° 173° (S) 3,424 6.8 -10.1°
